EW3966 Weather Reports


time (UTC)temp
F
wind
direction
speed
knots
gust
knots
rain 1hr
in
rain 24hr
in
rain mn
in
humidity
%
barometer
mb
20260506084047 56 266 12.2 23.5 0.00 0.00 0.00 86 1016.8
20260506083547 56 261 10.4 23.5 0.00 0.00 0.00 86 1016.7
20260506083047 56 268 10.4 22.6 0.00 0.00 0.00 87 1016.7
20260506082045 55 241 10.4 20.9 0.00 0.00 0.00 88 1016.7
20260506081544 55 256 9.6 23.5 0.00 0.00 0.00 88 1016.7
20260506081044 55 303 7.8 23.5 0.00 0.00 0.00 88 1016.8
20260506080543 54 212 10.4 22.6 0.00 0.00 0.00 89 1016.7
20260506073039 54 251 7.8 20.0 0.00 0.00 0.00 90 1017.2
20260506072143 53 267 8.7 22.6 0.00 0.00 0.00 90 1017.3
20260506071540 53 251 8.7 22.6 0.00 0.00 0.00 90 1017.3
20260506071037 53 203 7.0 20.0 0.00 0.00 0.00 91 1017.4
20260506070536 53 236 9.6 20.0 0.00 0.00 0.00 91 1017.4
20260506062031 52 242 7.0 15.6 0.00 0.00 0.00 92 1017.9
20260506061531 51 305 6.1 13.9 0.00 0.00 0.00 92 1017.8
20260506061030 51 256 7.0 15.6 0.00 0.00 0.00 92 1017.8
20260506060529 51 254 6.1 16.5 0.00 0.00 0.00 92 1017.9
20260506051025 49 203 8.7 20.9 0.00 0.00 0.00 89 1017.6
20260506050524 49 247 8.7 22.6 0.00 0.00 0.00 89 1017.6
20260506045021 49 244 7.8 20.0 0.00 0.00 0.00 86 1017.8
20260506044522 49 194 6.1 16.5 0.00 0.00 0.00 85 1017.8
20260506044018 49 275 7.8 19.1 0.00 0.00 0.00 85 1017.9
20260506043522 50 207 7.0 19.1 0.00 0.00 0.00 84 1017.9
20260506043017 50 249 6.1 13.0 0.00 0.00 0.00 83 1017.9
20260506042016 50 184 5.2 11.3 0.00 0.00 0.00 82 1017.8
20260506041514 50 230 5.2 12.2 0.00 0.00 0.00 81 1017.7
20260506041013 50 243 6.1 12.2 0.00 0.00 0.00 80 1017.8
20260506040513 50 193 6.1 11.3 0.00 0.00 0.00 79 1017.6
20260506040021 50 241 5.2 13.9 0.00 0.00 0.00 79 1017.6
20260506035514 50 203 7.8 13.9 0.00 0.00 0.00 78 1017.5
20260506035010 50 231 6.1 18.2 0.00 0.00 0.00 78 1017.5
20260506034518 50 208 7.0 18.2 0.00 0.00 0.00 78 1017.4
20260506034008 50 220 7.8 15.6 0.00 0.00 0.00 78 1017.3
20260506033507 50 228 8.7 15.6 0.00 0.00 0.00 78 1017.3
20260506033007 50 256 7.0 13.9 0.00 0.00 0.00 78 1017.2
20260506032009 50 276 7.0 15.6 0.00 0.00 0.00 78 1017.1
20260506031506 49 266 7.0 16.5 0.00 0.00 0.00 78 1017.1
20260506031005 49 191 7.8 16.5 0.00 0.00 0.00 78 1017.1
20260506030507 49 219 7.0 13.9 0.00 0.00 0.00 78 1017.1
20260506030011 50 255 7.0 16.5 0.00 0.00 0.00 77 1017.0
20260506025502 50 247 7.8 16.5 0.00 0.00 0.00 77 1017.1
20260506025101 50 232 7.0 16.5 0.00 0.00 0.00 77 1017.0
20260506024619 50 257 7.0 17.4 0.00 0.00 0.00 76 1016.9
20260506024059 50 267 7.8 17.4 0.00 0.00 0.00 76 1016.8
20260506023558 50 257 7.0 16.5 0.00 0.00 0.00 76 1016.7
20260506023057 51 205 7.8 22.6 0.00 0.00 0.00 75 1016.7
20260506022056 51 225 8.7 18.2 0.00 0.00 0.00 75 1016.6
20260506021558 51 218 7.0 19.1 0.00 0.00 0.00 75 1016.7
20260506021057 51 216 8.7 19.1 0.00 0.00 0.00 74 1016.6
20260506020555 51 264 8.7 20.0 0.00 0.00 0.00 75 1016.5
20260506020058 51 244 7.8 20.0 0.00 0.00 0.00 75 1016.4
20260506015555 51 209 8.7 19.1 0.00 0.00 0.00 75 1016.5
20260506015055 51 274 10.4 19.1 0.00 0.00 0.00 75 1016.4
20260506014554 51 230 8.7 18.2 0.00 0.00 0.00 75 1016.3
20260506014057 51 230 8.7 18.2 0.00 0.00 0.00 75 1016.2
20260506013558 51 243 8.7 18.2 0.00 0.00 0.00 76 1016.2
20260506013104 50 222 7.8 20.9 0.00 0.00 0.00 76 1016.1
20260506012052 50 209 6.1 15.6 0.00 0.00 0.00 77 1016.0
20260506011606 50 263 7.8 16.5 0.00 0.00 0.00 77 1016.2
20260506011052 50 213 7.8 16.5 0.00 0.00 0.00 77 1016.1
20260506010552 50 214 7.0 16.5 0.00 0.00 0.00 77 1016.1
20260506010056 50 232 7.0 16.5 0.00 0.00 0.00 77 1016.0
20260506005552 50 270 7.0 15.6 0.00 0.00 0.00 77 1016.1
20260506005053 50 262 7.0 13.9 0.00 0.00 0.00 78 1016.0
20260506004549 49 199 6.1 13.0 0.00 0.00 0.00 78 1015.9
20260506004049 49 239 5.2 13.0 0.00 0.00 0.00 78 1015.9
20260506003549 49 232 6.1 12.2 0.00 0.00 0.00 78 1015.8
20260506003049 49 271 6.1 16.5 0.00 0.00 0.00 78 1015.7
20260506002049 49 219 6.1 13.0 0.00 0.00 0.00 78 1015.6
20260506001548 49 214 5.2 16.5 0.00 0.00 0.00 78 1015.6
20260506001047 49 187 6.1 16.5 0.00 0.00 0.00 78 1015.5
20260506000548 49 235 5.2 16.5 0.00 0.00 0.00 78 1015.5
20260506000050 50 237 6.1 16.5 0.00 0.00 0.00 77 1015.4
20260505235546 50 261 4.3 10.4 0.00 0.00 0.00 77 1015.4
20260505235045 50 241 4.3 12.2 0.00 0.00 0.00 77 1015.4
20260505234545 50 242 4.3 12.2 0.00 0.00 0.00 77 1015.3
20260505234044 50 232 5.2 12.2 0.00 0.00 0.00 77 1015.3
20260505233543 50 182 4.3 12.2 0.00 0.00 0.00 76 1015.1
20260505233043 50 207 3.5 10.4 0.00 0.00 0.00 76 1015.0
20260505232045 51 249 2.6 11.3 0.00 0.00 0.00 75 1014.9
20260505231543 51 232 6.1 11.3 0.00 0.00 0.00 74 1014.8
20260505231043 51 212 4.3 9.6 0.00 0.00 0.00 73 1014.7
20260505230540 52 240 4.3 9.6 0.00 0.00 0.00 73 1014.4
20260505230051 52 185 0.9 7.8 0.00 0.00 0.00 72 1014.4
20260505225539 52 220 2.6 9.6 0.00 0.00 0.00 72 1014.2
20260505225039 52 203 3.5 9.6 0.00 0.00 0.00 71 1014.2
20260505224536 53 255 1.7 8.7 0.00 0.00 0.00 71 1014.2
20260505224040 53 185 4.3 8.7 0.00 0.00 0.00 70 1014.0
20260505223534 53 205 2.6 11.3 0.00 0.00 0.00 69 1013.9
20260505223040 54 256 1.7 11.3 0.00 0.00 0.00 69 1013.8
20260505222036 54 222 4.3 13.0 0.00 0.00 0.00 69 1013.5
20260505221536 54 232 3.5 13.0 0.00 0.00 0.00 68 1013.4
20260505221035 54 222 3.5 16.5 0.00 0.00 0.00 68 1013.3
20260505220532 54 264 5.2 16.5 0.00 0.00 0.00 68 1013.3
20260505220035 55 246 5.2 17.4 0.00 0.00 0.00 67 1013.1
20260505215531 55 213 5.2 17.4 0.00 0.00 0.00 66 1013.2
20260505215030 55 268 5.2 13.0 0.00 0.00 0.00 66 1013.0
20260505214530 55 218 6.1 13.0 0.00 0.00 0.00 65 1012.9
20260505214029 56 210 7.0 15.6 0.00 0.00 0.00 64 1012.9
20260505213528 56 229 6.1 16.5 0.00 0.00 0.00 63 1012.7
20260505213038 56 234 6.1 13.9 0.00 0.00 0.00 62 1012.6
20260505212027 57 178 4.3 13.9 0.00 0.00 0.00 57 1012.4
20260505211527 58 272 5.2 16.5 0.00 0.00 0.00 54 1012.2
20260505211027 58 216 6.1 16.5 0.00 0.00 0.00 52 1012.1
20260505210526 59 261 4.3 19.1 0.00 0.00 0.00 49 1012.2
20260505210026 59 236 7.0 19.1 0.00 0.00 0.00 47 1012.2
20260505205524 59 241 7.8 16.5 0.00 0.00 0.00 45 1012.0
20260505205025 60 249 6.1 17.4 0.00 0.00 0.00 44 1012.1
20260505204524 60 204 7.8 17.4 0.00 0.00 0.00 43 1012.0
20260505204025 60 284 9.6 17.4 0.00 0.00 0.00 41 1011.8
20260505203524 60 217 7.0 20.9 0.00 0.00 0.00 41 1011.8
20260505203036 60 249 6.1 13.9 0.00 0.00 0.00 41 1011.9
20260505202022 60 159 7.0 22.6 0.00 0.00 0.00 40 1011.8
20260505201522 60 216 8.7 22.6 0.00 0.00 0.00 40 1011.7
20260505201023 60 257 7.0 19.1 0.00 0.00 0.00 39 1011.7
20260505200523 60 209 7.0 19.1 0.00 0.00 0.00 39 1011.7
20260505200031 60 271 7.0 19.1 0.00 0.00 0.00 40 1011.7
20260505195519 60 232 7.8 19.1 0.00 0.00 0.00 41 1011.6
20260505195021 60 197 7.0 20.9 0.00 0.00 0.00 41 1011.5
20260505194518 60 191 7.8 16.5 0.00 0.00 0.00 41 1011.4
20260505194018 60 214 7.8 20.9 0.00 0.00 0.00 42 1011.3
20260505193517 60 206 8.7 20.0 0.00 0.00 0.00 43 1011.3
20260505193017 60 224 7.0 21.7 0.00 0.00 0.00 43 1011.3
20260505192018 60 205 10.4 21.7 0.00 0.00 0.00 41 1011.2
20260505191517 60 241 10.4 21.7 0.00 0.00 0.00 42 1011.1
20260505191016 60 217 7.0 22.6 0.00 0.00 0.00 43 1011.1
20260505190519 60 216 9.6 22.6 0.00 0.00 0.00 44 1011.0
20260505190016 60 236 5.2 19.1 0.00 0.00 0.00 44 1010.9
20260505185518 60 220 9.6 20.0 0.00 0.00 0.00 43 1010.8
20260505185014 60 227 7.8 24.3 0.00 0.00 0.00 42 1010.7
20260505184519 59 204 8.7 28.7 0.00 0.00 0.00 43 1010.7
20260505184014 60 230 8.7 22.6 0.00 0.00 0.00 44 1010.7
20260505183513 60 250 8.7 22.6 0.00 0.00 0.00 44 1010.6
20260505183013 59 205 7.8 20.9 0.00 0.00 0.00 45 1010.6
20260505182012 60 226 7.8 21.7 0.00 0.00 0.00 44 1010.6
20260505181512 60 230 7.8 22.6 0.00 0.00 0.00 43 1010.6
20260505181011 60 284 7.0 25.2 0.00 0.00 0.00 44 1010.6
20260505180518 59 245 9.6 25.2 0.00 0.00 0.00 43 1010.7
20260505180010 60 212 7.8 23.5 0.00 0.00 0.00 43 1010.4
20260505175510 60 255 10.4 24.3 0.00 0.00 0.00 42 1010.7
20260505175009 60 218 8.7 25.2 0.00 0.00 0.00 40 1010.7
20260505174514 60 237 8.7 25.2 0.00 0.00 0.00 41 1010.5
20260505174009 60 225 7.0 25.2 0.00 0.00 0.00 42 1010.5
20260505173512 60 264 9.6 20.0 0.00 0.00 0.00 42 1010.6
20260505173018 60 220 8.7 25.2 0.00 0.00 0.00 43 1010.6
20260505172007 60 172 8.7 25.2 0.00 0.00 0.00 42 1010.4
20260505171507 60 200 7.8 25.2 0.00 0.00 0.00 43 1010.5
20260505171010 60 278 9.6 25.2 0.00 0.00 0.00 44 1010.2
20260505170504 60 275 10.4 25.2 0.00 0.00 0.00 43 1010.2
20260505170004 60 228 8.7 25.2 0.00 0.00 0.00 42 1010.3
20260505165503 60 164 9.6 25.2 0.00 0.00 0.00 41 1010.1
20260505165003 60 234 8.7 27.8 0.00 0.00 0.00 40 1010.1
20260505164503 60 185 8.7 27.8 0.00 0.00 0.00 39 1010.3
20260505164003 60 255 7.8 23.5 0.00 0.00 0.00 39 1010.2
20260505163501 59 257 8.7 23.5 0.00 0.00 0.00 39 1009.9
20260505163009 59 245 9.6 18.2 0.00 0.00 0.00 39 1009.9
20260505162001 59 278 10.4 25.2 0.00 0.00 0.00 40 1010.0
20260505161600 59 266 8.7 21.7 0.00 0.00 0.00 40 1009.8
20260505161059 59 205 7.8 21.7 0.00 0.00 0.00 42 1009.7
20260505160559 59 232 10.4 20.0 0.00 0.00 0.00 41 1009.7
20260505153108 59 216 7.8 18.2 0.00 0.00 0.00 46 1009.3
20260505152052 58 234 8.7 20.0 0.00 0.00 0.00 46 1009.3
20260505151556 58 289 7.8 19.1 0.00 0.00 0.00 46 1009.3
20260505151052 58 234 8.7 20.9 0.00 0.00 0.00 48 1009.0
20260505150549 58 201 8.7 20.9 0.00 0.00 0.00 48 1009.1
20260505140543 55 197 7.8 18.2 0.00 0.00 0.00 60 1008.8
20260505125031 53 228 5.2 12.2 0.00 0.00 0.00 72 1008.1
20260505124531 53 200 6.1 17.4 0.00 0.00 0.00 72 1007.9
20260505124029 52 231 6.1 17.4 0.00 0.00 0.00 74 1007.9
20260505123528 52 267 7.8 17.4 0.00 0.00 0.00 75 1007.9
20260505123028 52 195 6.1 17.4 0.00 0.00 0.00 74 1007.8
20260505122027 52 212 4.3 13.9 0.00 0.00 0.00 77 1007.6
20260505121529 51 219 6.1 24.3 0.00 0.00 0.00 77 1007.6
20260505121025 50 194 7.8 24.3 0.00 0.00 0.00 77 1007.3
20260505120524 51 180 6.1 19.1 0.00 0.00 0.00 77 1007.4
20260505120023 50 200 8.7 20.9 0.00 0.00 0.00 78 1007.3
20260505115523 50 209 7.0 20.9 0.00 0.00 0.00 78 1007.2
20260505115024 50 254 7.8 18.2 0.00 0.00 0.00 77 1007.2
20260505114532 50 185 6.1 18.2 0.00 0.00 0.00 78 1007.3
20260505114022 50 216 5.2 18.2 0.00 0.00 0.00 78 1007.4
20260505113521 50 230 5.2 17.4 0.00 0.00 0.00 78 1007.4
20260505113020 50 253 4.3 15.6 0.00 0.00 0.00 78 1007.5
20260505112019 50 223 6.1 17.4 0.00 0.00 0.00 78 1007.4
20260505111519 49 224 5.2 17.4 0.00 0.00 0.00 78 1007.3
20260505111018 49 217 5.2 19.1 0.00 0.00 0.00 78 1007.2
20260505110517 50 239 7.0 19.1 0.00 0.00 0.00 77 1007.0
20260505102008 47 272 6.1 13.9 0.00 0.00 0.00 81 1006.1
20260505101508 47 215 7.0 13.0 0.00 0.00 0.00 81 1006.0
20260505101007 46 257 5.2 15.6 0.00 0.00 0.00 82 1006.1
20260505100506 46 201 7.0 15.6 0.00 0.00 0.00 82 1006.0
20260505100008 46 237 5.2 13.0 0.00 0.00 0.00 82 1005.8
20260505095505 46 222 5.2 13.0 0.00 0.00 0.00 83 1005.7
20260505095003 45 168 4.3 13.0 0.00 0.00 0.00 83 1005.8
20260505094504 45 234 5.2 15.6 0.00 0.00 0.00 83 1005.9
20260505094001 45 246 5.2 15.6 0.00 0.00 0.00 84 1005.8
20260505093600 44 261 5.2 12.2 0.00 0.00 0.00 84 1005.5
20260505093102 44 201 5.2 12.2 0.00 0.00 0.00 84 1005.4
20260505092659 43 240 5.2 15.6 0.00 0.00 0.00 85 1005.5
20260505092058 43 229 7.0 15.6 0.00 0.00 0.00 85 1005.4
20260505091602 43 219 6.1 12.2 0.00 0.00 0.00 85 1005.2
20260505091058 43 212 4.3 11.3 0.00 0.00 0.00 86 1005.1
20260505090558 42 260 5.2 12.2 0.00 0.00 0.00 86 1005.1
20260505090101 42 261 5.2 12.2 0.00 0.00 0.00 86 1005.0
20260505085558 42 237 6.1 13.0 0.00 0.00 0.00 87 1005.1
20260505085105 42 255 4.3 15.6 0.00 0.00 0.00 87 1005.1
20260505084557 41 230 5.2 10.4 0.00 0.00 0.00 87 1005.2